Location: M�nchen
(48.1404°N, 11.6043°E)
Time: 12:34:37
(UTC+01:00)

nSIGHT-1 - Visible Passes

Search period start: 19 February 2019 00:00
Search period end: 01 March 2019 00:00
Orbit: 365 x 372 km, 51.6° (Epoch: 18 February)

Date Brightness Start Highest point End Pass type
(mag) Time Alt. Az. Time Alt. Az. Time Alt. Az.
19 Feb ? 06:35:01 10° SW 06:37:50 35° SE 06:40:38 10° ENE visible
20 Feb ? 05:32:09 10° S 05:34:15 17° SE 05:36:20 10° E visible
21 Feb ? 06:03:02 11° SW 06:05:47 46° SSE 06:08:43 10° ENE visible
22 Feb ? 05:02:00 23° SE 05:02:05 23° SE 05:04:33 10° E visible
22 Feb ? 06:34:30 10° WSW 06:37:32 73° NNW 06:40:35 10° ENE visible
23 Feb ? 05:32:44 39° SW 05:33:39 62° SSE 05:36:39 10° ENE visible
24 Feb ? 04:31:26 18° E 04:31:26 18° E 04:32:33 10° E visible
24 Feb ? 06:03:21 19° W 06:05:22 61° NNW 06:08:24 10° ENE visible
25 Feb ? 05:01:56 55° E 05:01:56 55° E 05:04:25 10° ENE visible
26 Feb ? 05:32:21 39° WNW 05:33:06 52° NNW 05:36:05 10° ENE visible
27 Feb ? 04:30:48 22° ENE 04:30:48 22° ENE 04:32:04 10° ENE visible
27 Feb ? 06:02:41 15° WNW 06:04:54 40° N 06:07:49 10° ENE visible
28 Feb ? 05:01:04 44° NNE 05:01:04 44° NNE 05:03:39 10° ENE visible
